Погода в Арбаже

Россия / Кировская область     57°40′42″N   48°18′07″E
темп.,
°C
ветер,
м/с
пор.,
м/с
влажн.,
%
обл.,
%
осадки,
мм/ч
давл.,
гПа
погр.,
м
15 мая, сб
сб1500:00+16зюз229180 0.0 101725
03:00+16ю119099 0.0 101811
06:00+17юв2686100 0.1 1017143
09:00+23ююв5866100 0.1 1016636
12:00+27ю6945100 0.0 10151254
15:00+28ююз6124195 0.0 10141803
18:00+24юз612492 0.0 1013992
21:00+19ююз4146421 0.0 1014397
16 мая, вс
вс1600:00+16ююз23805 0.0 101543
03:00+15ю248510 0.0 101573
06:00+18ююз377435 0.0 1015255
09:00+23юз476084 0.0 1015764
12:00+25юз585151 0.0 10151604
15:00+26юз5947100 0.0 10141719
18:00+23юз596095 0.1 1014779
21:00+18зюз36828 0.8 1015130
17 мая, пн
пн1700:00+15юз23885 3.6 101536
03:00+14ююз22932 3.9 101719
06:00+17зюз238050 0.0 1017141
09:00+21зюз2462100 0.0 1018628
12:00+24юз464530 0.0 10181657
15:00+25юз464049 0.0 10171751
18:00+23ююз24605 0.0 1017110
21:00+19ю116942 0.0 101711
18 мая, вт
вт1800:00+16юв2279100 0.2 101715
03:00+15юв228626 0.2 101721
06:00+19ююв237740 0.1 1017134
09:00+25ююз234945 0.1 1017482
12:00+29ю34335 0.0 10161309
15:00+29ю45326 0.0 10162779
18:00+26ю26512 0.0 1015152
21:00+19ю36622 0.0 101685
19 мая, ср
ср1900:00+17ююв36656 0.0 101692
03:00+16юв377193 0.0 1016113
06:00+19юв31068100 0.0 1016246
09:00+24ююв5946100 0.0 1015485
12:00+28ююв61136100 0.0 10141158
15:00+29ююв6103679 0.0 10133025
18:00+25ююв51250100 0.0 1012523
21:00+21ююв5145996 0.0 1012375